[[{"header":{"parameterUnit":"m.s-1","parameterCategory":1,"la1":30.2991,"la2":30.254,"lo1":-89.0895,"lo2":-89.0444,"dy":0.0017,"dx":0.0017,"nx":28,"ny":28,"refTime":"2025-08-01T03:00:00:Z","depth":0,"parameterNumber":2,"parameterNumberName":"U-component_of_WINDS"},"data":[0,0,0,0,0,0,0,0,0,0,0,0,0,0,0,0,0,0,0,0,0,0,0,0,0,0,0,0,0,0,0,0,0,0,0,0,0,0,0,0,0,0,0,0,0,0,0,0,0,0,0,0,0,0,0,0,0,0,0.4308,0.4309,0,0.4399,0.44,0.4401,0.4416,0.4415,0.4415,0.4414,0.4514,0.4517,0.452,0,0,0,0,0,0,0,0,0,0,0,0,0,0.4151,0.4154,0.4308,0.4309,0.431,0.4399,0.44,0.4402,0.4416,0.4415,0.4414,0.4413,0.4512,0.4516,0.4521,0,0,0,0,0,0,0,0,0,0,0,0,0,0.4229,0.4155,0.4308,0.4328,0.4331,0.4399,0.44,0.4402,0.4416,0.4415,0.4414,0.4413,0.4511,0.4516,0.4521,0.4577,0,0,0.4537,0.4539,0,0,0,0,0,0,0,0,0.4224,0.4235,0.4324,0.4327,0.433,0.4395,0.4382,0.4461,0.4417,0.4384,0.4414,0.4412,0.4475,0.4483,0.4503,0.4582,0.4586,0.4537,0.454,0.4543,0.4544,0,0,0,0,0,0,0,0.4219,0.4231,0.4344,0.4325,0.4329,0.4334,0.4344,0.4397,0.4436,0.4387,0.4388,0.4398,0.4477,0.4498,0.4506,0.4588,0.4537,0.4542,0.4545,0.4547,0.4716,0.4718,0,0,0,0,0,0,0.4209,0.4226,0.4341,0.4347,0.4273,0.4338,0.4349,0.4375,0.4435,0.4443,0.4399,0.4399,0.449,0.45,0.4509,0.4579,0.4542,0.4547,0.455,0.4715,0.4717,0.4718,0,0,0,0,0,0,0.4206,0.4219,0.4338,0.4287,0.4302,0.4342,0.4372,0.4378,0.4399,0.4444,0.4452,0.4414,0.449,0.4502,0.456,0.4583,0.455,0.4554,0.4713,0.4715,0.4717,0.4718,0,0,0,0,0,0,0.4201,0.4218,0.4239,0.4287,0.4305,0.4385,0.4373,0.4381,0.4407,0.4407,0.446,0.4468,0.449,0.4552,0.4565,0.4589,0.4558,0.4711,0.4714,0.4717,0.4716,0.472,0.4723,0,0,0,0,0,0.4196,0.4237,0.4239,0.4253,0.4331,0.4386,0.4396,0.4419,0.4409,0.4431,0.446,0.4466,0.4578,0.4558,0.4572,0.4598,0.471,0.4713,0.4717,0.4715,0.4719,0.4723,0,0,0,0,0,0,0.4192,0.4243,0.4247,0.4305,0.434,0.4388,0.4416,0.4423,0.4464,0.4463,0.4491,0.4503,0.4559,0.4585,0.4561,0.4656,0.4643,0.465,0.4637,0.4642,0.4645,0.4638,0.4563,0,0,0,0,0,0.4197,0.4236,0.4279,0.4326,0.4344,0.4377,0.4402,0.4416,0.4455,0.4471,0.4504,0.4543,0.4587,0.4616,0.4659,0.472,0.4732,0.4745,0.4748,0.4751,0.4756,0.479,0.4797,0.4729,0.4729,0.4729,0,0,0.421,0.4243,0.4266,0.4326,0.4356,0.4396,0.439,0.4433,0.4464,0.4478,0.4534,0.4559,0.4605,0.4664,0.4692,0.4687,0.4778,0.4755,0.4757,0.4761,0.4794,0.4801,0.4806,0.4731,0.4731,0.473,0,0,0.4254,0.4282,0.4324,0.4353,0.4396,0.4418,0.4428,0.4474,0.4491,0.4547,0.4558,0.4596,0.4671,0.4703,0.4729,0.4784,0.4791,0.4797,0.4816,0.4849,0.4854,0.4859,0.4879,0.4885,0.4802,0.4802,0.4802,0,0.4264,0.4324,0.4345,0.4387,0.4414,0.4426,0.4469,0.4497,0.4553,0.4572,0.4565,0.4659,0.4691,0.4757,0.477,0.4791,0.4804,0.4792,0.4851,0.4856,0.4861,0.488,0.4888,0.4803,0.4802,0.4802,0.4802,0,0.4335,0.4377,0.4405,0.4457,0.4487,0.453,0.4558,0.4586,0.4597,0.462,0.4677,0.4715,0.4765,0.4782,0.4795,0.4851,0.4846,0.4845,0.4833,0.4868,0.4886,0.4894,0.4803,0.4803,0.4803,0.4803,0,0,0.438,0.4441,0.4452,0.4475,0.4523,0.4557,0.46,0.4648,0.4671,0.471,0.4748,0.481,0.4808,0.4838,0.4854,0.4883,0.4924,0.4878,0.488,0.4886,0.4988,0.4989,0.4997,0.4928,0.493,0.4931,0.4985,0,0.443,0.4506,0.4525,0.459,0.4629,0.4641,0.4679,0.4713,0.4736,0.4773,0.4799,0.4842,0.4837,0.4855,0.4883,0.4912,0.4945,0.4909,0.4966,0.4967,0.4954,0.5007,0.5009,0.5057,0.4992,0.4993,0.4994,0,0.4498,0.4535,0.4604,0.4646,0.4664,0.4697,0.4742,0.4777,0.4817,0.4831,0.4863,0.4876,0.4923,0.4908,0.4974,0.4949,0.4974,0.4991,0.4994,0.5001,0.4983,0.5016,0.5073,0.5081,0.5006,0.5005,0.5004,0,0.4524,0.4592,0.4641,0.4661,0.4712,0.4735,0.4758,0.4796,0.4823,0.4863,0.4881,0.4926,0.4951,0.4987,0.5012,0.4999,0.5076,0.5063,0.5091,0.509,0.5108,0.5106,0.517,0.5122,0.5122,0.5122,0.5122,0,0.4578,0.4619,0.4653,0.4684,0.4731,0.4753,0.48,0.4824,0.4857,0.4894,0.4907,0.4942,0.4972,0.5011,0.5032,0.5084,0.5095,0.5109,0.5114,0.5108,0.5106,0.5125,0.5123,0.5124,0.5123,0.5123,0.5123,0,0.4615,0.464,0.4694,0.4737,0.4749,0.4782,0.482,0.4851,0.4873,0.4919,0.4931,0.4966,0.5013,0.5041,0.51,0.5114,0.5171,0.5175,0.5157,0.516,0.5185,0.5183,0.5264,0.5276,0.5219,0.522,0.522,0,0.4648,0.468,0.4726,0.475,0.4772,0.4812,0.4838,0.4862,0.489,0.4937,0.4962,0.5009,0.5047,0.5121,0.5153,0.5199,0.5204,0.5229,0.5211,0.5204,0.5205,0.5203,0.5207,0.5233,0.5233,0.5234,0.5234,0,0.4704,0.4714,0.4751,0.4792,0.4823,0.4858,0.4892,0.4912,0.4941,0.4972,0.5018,0.5048,0.5107,0.5154,0.5202,0.5227,0.5236,0.5239,0.5248,0.5243,0.5231,0.5238,0.5166,0.5238,0.5237,0.5237,0.5237,0.5237,0.4741,0.4769,0.4805,0.4846,0.4874,0.4906,0.4936,0.4961,0.4999,0.5048,0.506,0.5109,0.5148,0.5213,0.5239,0.5279,0.5275,0.5288,0.5292,0.5294,0.5295,0.5224,0.5288,0.5288,0.5288,0.5288,0.5288,0,0.4797,0.482,0.4858,0.4904,0.4937,0.4939,0.4977,0.5005,0.5047,0.5082,0.5119,0.5172,0.5217,0.5252,0.5298,0.5323,0.5329,0.5335,0.5334,0.5339,0.5296,0.5283,0.533,0.533,0.533,0.533,0.533,0.533,0.483,0.4879,0.4893,0.4956,0.498,0.5026,0.5047,0.5077,0.5105,0.5163,0.5199,0.5221,0.5256,0.5305,0.5347,0.5356,0.5373,0.5378,0.5389,0.5347,0.5343,0.5338,0.5327,0.5382,0.5382,0.5429,0.543,0.543]},{"header":{"parameterUnit":"m.s-1","parameterCategory":1,"la1":30.2991,"la2":30.254,"lo1":-89.0895,"lo2":-89.0444,"dy":0.0017,"dx":0.0017,"nx":28,"ny":28,"refTime":"2025-08-01T03:00:00:Z","depth":0,"parameterNumber":3,"parameterNumberName":"V-component_of_WINDS"},"data":[0,0,0,0,0,0,0,0,0,0,0,0,0,0,0,0,0,0,0,0,0,0,0,0,0,0,0,0,0,0,0,0,0,0,0,0,0,0,0,0,0,0,0,0,0,0,0,0,0,0,0,0,0,0,0,0,0,0,3.9135,3.9136,0,3.917,3.917,3.9171,3.9205,3.9205,3.9206,3.9206,3.9237,3.9238,3.9238,0,0,0,0,0,0,0,0,0,0,0,0,0,3.9096,3.9096,3.9135,3.9136,3.9136,3.917,3.917,3.9171,3.9205,3.9205,3.9206,3.9207,3.9237,3.9238,3.9238,0,0,0,0,0,0,0,0,0,0,0,0,0,3.912,3.9097,3.9135,3.9157,3.916,3.917,3.917,3.9171,3.9205,3.9205,3.9206,3.9207,3.9237,3.9238,3.9238,3.9228,0,0,3.924,3.924,0,0,0,0,0,0,0,0,3.9118,3.9121,3.9154,3.9156,3.9159,3.9184,3.9168,3.919,3.9205,3.9188,3.9206,3.9207,3.9219,3.9221,3.9226,3.9229,3.9231,3.924,3.9241,3.9241,3.9241,0,0,0,0,0,0,0,3.9117,3.912,3.9149,3.9154,3.9157,3.9165,3.9169,3.9172,3.9199,3.9189,3.9192,3.9196,3.922,3.9225,3.9227,3.9231,3.924,3.9241,3.9241,3.9241,3.9228,3.9227,0,0,0,0,0,0,3.9112,3.9118,3.9148,3.915,3.914,3.9165,3.9169,3.9175,3.9199,3.9203,3.9195,3.9197,3.9224,3.9226,3.9228,3.9217,3.9241,3.9241,3.9242,3.9229,3.9228,3.9227,0,0,0,0,0,0,3.9111,3.9115,3.9146,3.9135,3.914,3.9165,3.9171,3.9175,3.918,3.9203,3.9208,3.9195,3.9224,3.9227,3.9228,3.9219,3.9242,3.9242,3.923,3.9229,3.9228,3.9196,0,0,0,0,0,0,3.911,3.9114,3.9111,3.9135,3.914,3.9147,3.917,3.9175,3.9182,3.9185,3.9205,3.9209,3.9225,3.9227,3.9229,3.922,3.9243,3.9231,3.9229,3.9228,3.9198,3.9194,3.919,0,0,0,0,0,3.9108,3.91,3.9111,3.9114,3.9137,3.9146,3.9149,3.917,3.9181,3.9177,3.9192,3.9208,3.922,3.9227,3.9229,3.922,3.9231,3.923,3.9228,3.9199,3.9195,3.919,0,0,0,0,0,0,3.9072,3.9103,3.9116,3.9114,3.9128,3.9152,3.9148,3.9164,3.9173,3.9175,3.9199,3.9203,3.9201,3.9211,3.9218,3.9212,3.9228,3.9226,3.9205,3.9201,3.9197,3.9194,3.9243,0,0,0,0,0,3.9065,3.9071,3.9097,3.9093,3.9099,3.9123,3.9127,3.9142,3.9156,3.9162,3.9177,3.9188,3.9195,3.9199,3.9206,3.92,3.9204,3.9195,3.9191,3.9188,3.9186,3.9184,3.918,3.9222,3.9222,3.9222,0,0,3.9048,3.9066,3.9068,3.9086,3.9098,3.9103,3.9127,3.9131,3.9134,3.9162,3.9164,3.9175,3.919,3.9187,3.9187,3.9196,3.9176,3.9186,3.9183,3.9183,3.9182,3.9178,3.9174,3.9221,3.9221,3.9221,0,0,3.902,3.9034,3.9033,3.9045,3.9064,3.9079,3.9079,3.9102,3.9111,3.9114,3.9134,3.9138,3.9149,3.9159,3.9165,3.9142,3.9157,3.9144,3.9124,3.9121,3.9118,3.9115,3.9106,3.9103,3.9142,3.9142,3.9142,0,3.8996,3.9006,3.903,3.9033,3.904,3.9068,3.9066,3.9076,3.9095,3.9099,3.9109,3.9123,3.9135,3.9135,3.913,3.9134,3.9134,3.9141,3.9117,3.9114,3.9112,3.9104,3.91,3.914,3.9141,3.9141,3.9141,0,3.8976,3.8982,3.8978,3.8998,3.9005,3.9006,3.9029,3.9033,3.9048,3.9062,3.9065,3.908,3.9091,3.9093,3.9106,3.9094,3.9099,3.9113,3.9129,3.9106,3.9098,3.9096,3.9138,3.9139,3.9139,3.914,0,0,3.8924,3.8959,3.8957,3.8967,3.899,3.8994,3.8996,3.9008,3.9011,3.9024,3.9025,3.9034,3.9047,3.9054,3.9069,3.9067,3.9047,3.9081,3.9081,3.9073,3.9035,3.9024,3.9021,3.9058,3.9057,3.9057,3.9034,0,3.8899,3.8906,3.8928,3.8927,3.8933,3.8959,3.8961,3.8974,3.8988,3.8994,3.9009,3.9015,3.9032,3.9036,3.9035,3.905,3.904,3.9052,3.9058,3.9058,3.9053,3.9017,3.9005,3.8983,3.9031,3.9031,3.903,0,3.8871,3.8884,3.8884,3.8908,3.8911,3.8912,3.8925,3.8931,3.8947,3.8957,3.8966,3.8983,3.8986,3.9002,3.9005,3.9013,3.9017,3.9024,3.9024,3.9025,3.9042,3.9016,3.8976,3.8972,3.9026,3.9027,3.9027,0,3.8833,3.885,3.8852,3.886,3.8888,3.8888,3.8899,3.8916,3.8922,3.8934,3.8938,3.8949,3.8954,3.8962,3.8981,3.8991,3.8982,3.9,3.8989,3.8989,3.8985,3.8985,3.8945,3.8989,3.8989,3.8989,3.8989,0,3.8802,3.8801,3.8836,3.8837,3.8836,3.8862,3.886,3.8874,3.8889,3.8893,3.8916,3.8918,3.8945,3.895,3.8965,3.8965,3.8967,3.8975,3.8979,3.8972,3.8971,3.8974,3.8976,3.8988,3.8988,3.8989,3.8989,0,3.8758,3.8782,3.8786,3.8813,3.882,3.8818,3.8841,3.8842,3.8859,3.8863,3.8865,3.889,3.8897,3.8918,3.893,3.894,3.8936,3.8944,3.8931,3.8933,3.8921,3.8922,3.8881,3.8877,3.8924,3.8924,3.8923,0,3.8737,3.8737,3.8765,3.877,3.8781,3.8788,3.8795,3.8821,3.8827,3.8846,3.8845,3.8855,3.8864,3.8875,3.8893,3.8902,3.891,3.8895,3.8911,3.8905,3.8909,3.8908,3.8908,3.8891,3.889,3.889,3.889,0,3.8696,3.8708,3.8718,3.8733,3.8741,3.8753,3.8766,3.8769,3.8797,3.8803,3.8812,3.8819,3.8833,3.8842,3.8855,3.8865,3.8881,3.8885,3.8883,3.8875,3.8868,3.8871,3.892,3.8885,3.8885,3.8886,3.8886,3.8886,3.8662,3.8664,3.8684,3.8694,3.8708,3.872,3.8723,3.8741,3.8749,3.8763,3.8778,3.8785,3.8801,3.8821,3.883,3.8835,3.8844,3.8841,3.884,3.8839,3.8836,3.8868,3.8838,3.8838,3.8838,3.8838,3.8838,0,3.8622,3.8637,3.8646,3.8665,3.8674,3.8691,3.8707,3.8712,3.8719,3.8734,3.8743,3.8753,3.8763,3.8782,3.8793,3.8793,3.8801,3.8795,3.8795,3.8797,3.8828,3.8828,3.8789,3.8789,3.8789,3.8789,3.8789,3.8789,3.8602,3.8605,3.862,3.863,3.8644,3.8653,3.8661,3.8672,3.8684,3.8695,3.8704,3.8717,3.8734,3.8746,3.8755,3.8761,3.8763,3.8755,3.8762,3.879,3.8795,3.8799,3.88,3.8755,3.8755,3.8731,3.8731,3.8731]}]]